Location: Aytr�
(46.1357°N, 1.1145°W)
Time: 16:05:51
(UTC+00:00)

Cosmos 44 Rocket - Pass Details

Date: 03 March 2021
Orbit: 636 x 754 km, 65.1° (Epoch: 17 April)

Event Time Altitude Azimuth Distance (km) Brightness Sun altitude
Rises 18:19:20 0° 325° (NW) 3,208 7.2 -5.2°
Reaches altitude 10° 18:21:45 10° 328° (NNW) 2,285 6.4 -5.6°
Maximum altitude 18:26:59 66° 51° (NE) 823 3.5 -6.5°
Drops below altitude 10° 18:32:09 10° 134° (SE) 2,259 5.5 -7.4°
Sets 18:34:32 0° 137° (SE) 3,168 6.3 -7.9°
